User: anonymous   Login
Location: Washington
(38.8950°N, 77.0370°W)
Time: 15:31:52
(UTC-05:00)
Language:

IDEFIX/ARIANE 42P - Orbit

View from above orbital plane
View from above orbital plane
View from above satellite
View from above satellite

Ground track
Ground track

The orbit data is extracted from the following two-line orbital elements,

1 27422U 02021B   17328.54508499 -.00000017  00000-0  91824-5 0  9995
2 27422  98.2395 320.0289 0013284 118.6286 241.6235 14.29259101809586
Epoch (UTC): 24 November 2017 13:04:55
Eccentricity: 0.0013284
inclination: 98.2395°
perigee height: 784 km
apogee height: 804 km
right ascension of ascending node: 320.0289°
argument of perigee: 118.6286°
revolutions per day: 14.29259101
mean anomaly at epoch: 241.6235°
orbit number at epoch: 80958

The dashed part of the orbit path shows where the satellite is in the earth's shadow,  

DLR